Year,Month,Day,Hour,Minute,Value (Times are PST for temperature in C)
2015,04,28,00,00,11.40
2015,04,28,00,01,11.40
2015,04,28,00,02,11.40
2015,04,28,00,03,11.40
2015,04,28,00,04,11.40
2015,04,28,00,05,11.40
2015,04,28,00,06,11.40
2015,04,28,00,07,11.40
2015,04,28,00,08,11.40
2015,04,28,00,09,11.30
2015,04,28,00,10,11.30
2015,04,28,00,11,11.30
2015,04,28,00,12,11.30
2015,04,28,00,13,11.20
2015,04,28,00,14,11.20
2015,04,28,00,15,11.20
2015,04,28,00,16,11.20
2015,04,28,00,17,11.20
2015,04,28,00,18,11.20
2015,04,28,00,19,11.20
2015,04,28,00,20,11.20
2015,04,28,00,21,11.20
2015,04,28,00,22,11.20
2015,04,28,00,23,11.20
2015,04,28,00,24,11.30
2015,04,28,00,25,11.30
2015,04,28,00,26,11.30
2015,04,28,00,27,11.30
2015,04,28,00,28,11.30
2015,04,28,00,29,11.30
2015,04,28,00,30,11.30
2015,04,28,00,31,11.30
2015,04,28,00,32,11.30
2015,04,28,00,33,11.30
2015,04,28,00,34,11.30
2015,04,28,00,35,11.30
2015,04,28,00,36,11.40
2015,04,28,00,37,11.40
2015,04,28,00,38,11.40
2015,04,28,00,39,11.40
2015,04,28,00,40,11.40
2015,04,28,00,41,11.40
2015,04,28,00,42,11.40
2015,04,28,00,43,11.40
2015,04,28,00,44,11.40
2015,04,28,00,45,11.40
2015,04,28,00,46,11.40
2015,04,28,00,47,11.40
2015,04,28,00,48,11.40
2015,04,28,00,49,11.40
2015,04,28,00,50,11.40
2015,04,28,00,51,11.40
2015,04,28,00,52,11.50
2015,04,28,00,53,11.60
2015,04,28,00,54,11.60
2015,04,28,00,55,11.60
2015,04,28,00,56,11.60
2015,04,28,00,57,11.60
2015,04,28,00,58,11.60
2015,04,28,00,59,11.60
2015,04,28,01,00,11.60
2015,04,28,01,01,11.60
2015,04,28,01,02,11.60
2015,04,28,01,03,11.70
2015,04,28,01,04,11.80
2015,04,28,01,05,11.80
2015,04,28,01,06,11.80
2015,04,28,01,07,11.90
2015,04,28,01,08,12.00
2015,04,28,01,09,12.00
2015,04,28,01,10,12.10
2015,04,28,01,11,12.10
2015,04,28,01,12,12.20
2015,04,28,01,13,12.30
2015,04,28,01,14,12.30
2015,04,28,01,15,12.40
2015,04,28,01,16,12.40
2015,04,28,01,17,12.40
2015,04,28,01,18,12.50
2015,04,28,01,19,12.50
2015,04,28,01,20,12.50
2015,04,28,01,21,12.60
2015,04,28,01,22,12.60
2015,04,28,01,23,12.60
2015,04,28,01,24,12.70
2015,04,28,01,25,12.70
2015,04,28,01,26,12.70
2015,04,28,01,27,12.80
2015,04,28,01,28,12.80
2015,04,28,01,29,12.80
2015,04,28,01,30,12.80
2015,04,28,01,31,12.80
2015,04,28,01,32,12.80
2015,04,28,01,33,12.80
2015,04,28,01,34,12.80
2015,04,28,01,35,12.80
2015,04,28,01,36,12.80
2015,04,28,01,37,12.80
2015,04,28,01,38,12.80
2015,04,28,01,39,12.80
2015,04,28,01,40,12.80
2015,04,28,01,41,12.80
2015,04,28,01,42,12.80
2015,04,28,01,43,12.80
2015,04,28,01,44,12.80
2015,04,28,01,45,12.80
2015,04,28,01,46,12.90
2015,04,28,01,47,13.00
2015,04,28,01,48,13.00
2015,04,28,01,49,13.10
2015,04,28,01,50,13.20
2015,04,28,01,51,13.30
2015,04,28,01,52,13.40
2015,04,28,01,53,13.50
2015,04,28,01,54,13.60
2015,04,28,01,55,13.70
2015,04,28,01,56,13.80
2015,04,28,01,57,13.90
2015,04,28,01,58,14.00
2015,04,28,01,59,14.00
2015,04,28,02,00,14.10
2015,04,28,02,01,14.20
2015,04,28,02,02,14.20
2015,04,28,02,03,14.30
2015,04,28,02,04,14.30
2015,04,28,02,05,14.40
2015,04,28,02,06,14.40
2015,04,28,02,07,14.40
2015,04,28,02,08,14.40
2015,04,28,02,09,14.40
2015,04,28,02,10,14.40
2015,04,28,02,11,14.40
2015,04,28,02,12,14.40
2015,04,28,02,13,14.40
2015,04,28,02,14,14.30
2015,04,28,02,15,14.30
2015,04,28,02,16,14.30
2015,04,28,02,17,14.30
2015,04,28,02,18,14.30
2015,04,28,02,19,14.30
2015,04,28,02,20,14.20
2015,04,28,02,21,14.20
2015,04,28,02,22,14.20
2015,04,28,02,23,14.20
2015,04,28,02,24,14.30
2015,04,28,02,25,14.30
2015,04,28,02,26,14.40
2015,04,28,02,27,14.40
2015,04,28,02,28,14.50
2015,04,28,02,29,14.50
2015,04,28,02,30,14.60
2015,04,28,02,31,14.60
2015,04,28,02,32,14.70
2015,04,28,02,33,14.70
2015,04,28,02,34,14.80
2015,04,28,02,35,14.80
2015,04,28,02,36,14.80
2015,04,28,02,37,14.80
2015,04,28,02,38,14.80
2015,04,28,02,39,14.90
2015,04,28,02,40,14.90
2015,04,28,02,41,15.00
2015,04,28,02,42,15.00
2015,04,28,02,43,15.10
2015,04,28,02,44,15.10
2015,04,28,02,45,15.20
2015,04,28,02,46,15.30
2015,04,28,02,47,15.30
2015,04,28,02,48,15.40
2015,04,28,02,49,15.40
2015,04,28,02,50,15.50
2015,04,28,02,51,15.50
2015,04,28,02,52,15.50
2015,04,28,02,53,15.60
2015,04,28,02,54,15.60
2015,04,28,02,55,15.60
2015,04,28,02,56,15.60
2015,04,28,02,57,15.70
2015,04,28,02,58,15.70
2015,04,28,02,59,15.80
2015,04,28,03,00,15.80
2015,04,28,03,01,15.80
2015,04,28,03,02,15.80
2015,04,28,03,03,15.80
2015,04,28,03,04,15.80
2015,04,28,03,05,15.80
2015,04,28,03,06,15.80
2015,04,28,03,07,15.80
2015,04,28,03,08,15.80
2015,04,28,03,09,15.80
2015,04,28,03,10,15.80
2015,04,28,03,11,15.80
2015,04,28,03,12,15.80
2015,04,28,03,13,15.80
2015,04,28,03,14,15.80
2015,04,28,03,15,15.80
2015,04,28,03,16,15.80
2015,04,28,03,17,15.80
2015,04,28,03,18,15.80
2015,04,28,03,19,15.80
2015,04,28,03,20,15.80
2015,04,28,03,21,15.80
2015,04,28,03,22,15.80
2015,04,28,03,23,15.80
2015,04,28,03,24,15.80
2015,04,28,03,25,15.80
2015,04,28,03,26,15.80
2015,04,28,03,27,15.80
2015,04,28,03,28,15.80
2015,04,28,03,29,15.80
2015,04,28,03,30,15.80
2015,04,28,03,31,15.80
2015,04,28,03,32,15.80
2015,04,28,03,33,15.80
2015,04,28,03,34,15.80
2015,04,28,03,35,15.80
2015,04,28,03,36,15.80
2015,04,28,03,37,15.80
2015,04,28,03,38,15.70
2015,04,28,03,39,15.70
2015,04,28,03,40,15.70
2015,04,28,03,41,15.80
2015,04,28,03,42,15.70
2015,04,28,03,43,15.70
2015,04,28,03,44,15.70
2015,04,28,03,45,15.70
2015,04,28,03,46,15.70
2015,04,28,03,47,15.70
2015,04,28,03,48,15.70
2015,04,28,03,49,15.70
2015,04,28,03,50,15.70
2015,04,28,03,51,15.70
2015,04,28,03,52,15.70
2015,04,28,03,53,15.70
2015,04,28,03,54,15.70
2015,04,28,03,55,15.60
2015,04,28,03,56,15.60
2015,04,28,03,57,15.60
2015,04,28,03,58,15.60
2015,04,28,03,59,15.60
2015,04,28,04,00,15.60
2015,04,28,04,01,15.60
2015,04,28,04,02,15.60
2015,04,28,04,03,15.60
2015,04,28,04,04,15.60
2015,04,28,04,05,15.60
2015,04,28,04,06,15.60
2015,04,28,04,07,15.60
2015,04,28,04,08,15.60
2015,04,28,04,09,15.60
2015,04,28,04,10,15.50
2015,04,28,04,11,15.50
2015,04,28,04,12,15.50
2015,04,28,04,13,15.50
2015,04,28,04,14,15.50
2015,04,28,04,15,15.50
2015,04,28,04,16,15.50
2015,04,28,04,17,15.40
2015,04,28,04,18,15.40
2015,04,28,04,19,15.30
2015,04,28,04,20,15.30
2015,04,28,04,21,15.30
2015,04,28,04,22,15.30
2015,04,28,04,23,15.30
2015,04,28,04,24,15.30
2015,04,28,04,25,15.20
2015,04,28,04,26,15.20
2015,04,28,04,27,15.20
2015,04,28,04,28,15.10
2015,04,28,04,29,15.10
2015,04,28,04,30,15.10
2015,04,28,04,31,15.00
2015,04,28,04,32,15.00
2015,04,28,04,33,14.90
2015,04,28,04,34,14.90
2015,04,28,04,35,14.90
2015,04,28,04,36,14.90
2015,04,28,04,37,14.90
2015,04,28,04,38,14.80
2015,04,28,04,39,14.80
2015,04,28,04,40,14.80
2015,04,28,04,41,14.80
2015,04,28,04,42,14.80
2015,04,28,04,43,14.80
2015,04,28,04,44,14.80
2015,04,28,04,45,14.80
2015,04,28,04,46,14.80
2015,04,28,04,47,14.80
2015,04,28,04,48,14.80
2015,04,28,04,49,14.80
2015,04,28,04,50,14.70
2015,04,28,04,51,14.70
2015,04,28,04,52,14.70
2015,04,28,04,53,14.70
2015,04,28,04,54,14.70
2015,04,28,04,55,14.70
2015,04,28,04,56,14.70
2015,04,28,04,57,14.70
2015,04,28,04,58,14.70
2015,04,28,04,59,14.60
2015,04,28,05,00,14.60
2015,04,28,05,01,14.60
2015,04,28,05,02,14.60
2015,04,28,05,03,14.60
2015,04,28,05,04,14.60
2015,04,28,05,05,14.50
2015,04,28,05,06,14.50
2015,04,28,05,07,14.50
2015,04,28,05,08,14.50
2015,04,28,05,09,14.40
2015,04,28,05,10,14.40
2015,04,28,05,11,14.40
2015,04,28,05,12,14.40
2015,04,28,05,13,14.40
2015,04,28,05,14,14.40
2015,04,28,05,15,14.40
2015,04,28,05,16,14.40
2015,04,28,05,17,14.30
2015,04,28,05,18,14.30
2015,04,28,05,19,14.30
2015,04,28,05,20,14.30
2015,04,28,05,21,14.30
2015,04,28,05,22,14.30
2015,04,28,05,23,14.30
2015,04,28,05,24,14.20
2015,04,28,05,25,14.20
2015,04,28,05,26,14.20
2015,04,28,05,27,14.30
2015,04,28,05,28,14.30
2015,04,28,05,29,14.30
2015,04,28,05,30,14.30
2015,04,28,05,31,14.30
2015,04,28,05,32,14.30
2015,04,28,05,33,14.40
2015,04,28,05,34,14.40
2015,04,28,05,35,14.40
2015,04,28,05,36,14.40
2015,04,28,05,37,14.50
2015,04,28,05,38,14.50
2015,04,28,05,39,14.50
2015,04,28,05,40,14.60
2015,04,28,05,41,14.60
2015,04,28,05,42,14.60
2015,04,28,05,43,14.60
2015,04,28,05,44,14.70
2015,04,28,05,45,14.70
2015,04,28,05,46,14.70
2015,04,28,05,47,14.70
2015,04,28,05,48,14.70
2015,04,28,05,49,14.80
2015,04,28,05,50,14.80
2015,04,28,05,51,14.80
2015,04,28,05,52,14.90
2015,04,28,05,53,14.90
2015,04,28,05,54,14.90
2015,04,28,05,55,14.90
2015,04,28,05,56,14.90
2015,04,28,05,57,14.90
2015,04,28,05,58,14.90
2015,04,28,05,59,14.90
2015,04,28,06,00,14.90
2015,04,28,06,01,14.90
2015,04,28,06,02,14.90
2015,04,28,06,03,15.00
2015,04,28,06,04,15.00
2015,04,28,06,05,15.00
2015,04,28,06,06,15.10
2015,04,28,06,07,15.10
2015,04,28,06,08,15.10
2015,04,28,06,09,15.10
2015,04,28,06,10,15.10
2015,04,28,06,11,15.10
2015,04,28,06,12,15.10
2015,04,28,06,13,15.10
2015,04,28,06,14,15.10
2015,04,28,06,15,15.10
2015,04,28,06,16,15.10
2015,04,28,06,17,15.10
2015,04,28,06,18,15.10
2015,04,28,06,19,15.10
2015,04,28,06,20,15.10
2015,04,28,06,21,15.00
2015,04,28,06,22,15.00
2015,04,28,06,23,15.00
2015,04,28,06,24,15.00
2015,04,28,06,25,15.00
2015,04,28,06,26,14.90
2015,04,28,06,27,14.90
2015,04,28,06,28,14.90
2015,04,28,06,29,14.90
2015,04,28,06,30,14.90
2015,04,28,06,31,14.90
2015,04,28,06,32,14.90
2015,04,28,06,33,14.80
2015,04,28,06,34,14.80
2015,04,28,06,35,14.80
2015,04,28,06,36,14.80
2015,04,28,06,37,14.80
2015,04,28,06,38,14.80
2015,04,28,06,39,14.70
2015,04,28,06,40,14.70
2015,04,28,06,41,14.70
2015,04,28,06,42,14.70
2015,04,28,06,43,14.60
2015,04,28,06,44,14.60
2015,04,28,06,45,14.60
2015,04,28,06,46,14.60
2015,04,28,06,47,14.60
2015,04,28,06,48,14.60
2015,04,28,06,49,14.60
2015,04,28,06,50,14.60
2015,04,28,06,51,14.70
2015,04,28,06,52,14.70
2015,04,28,06,53,14.70
2015,04,28,06,54,14.70
2015,04,28,06,55,14.70
2015,04,28,06,56,14.70
2015,04,28,06,57,14.70
2015,04,28,06,58,14.70
2015,04,28,06,59,14.80
2015,04,28,07,00,14.80
2015,04,28,07,01,14.80
2015,04,28,07,02,14.80
2015,04,28,07,03,14.80
2015,04,28,07,04,14.80
2015,04,28,07,05,14.80
2015,04,28,07,06,14.80
2015,04,28,07,07,14.80
2015,04,28,07,08,14.80
2015,04,28,07,09,14.80
2015,04,28,07,10,14.80
2015,04,28,07,11,14.80
2015,04,28,07,12,14.80
2015,04,28,07,13,14.80
2015,04,28,07,14,14.80
2015,04,28,07,15,14.80
2015,04,28,07,16,14.80
2015,04,28,07,17,14.80
2015,04,28,07,18,14.80
2015,04,28,07,19,14.80
2015,04,28,07,20,14.80
2015,04,28,07,21,14.80
2015,04,28,07,22,14.80
2015,04,28,07,23,14.80
2015,04,28,07,24,14.80
2015,04,28,07,25,14.80
2015,04,28,07,26,14.70
2015,04,28,07,27,14.70
2015,04,28,07,28,14.70
2015,04,28,07,29,14.60
2015,04,28,07,30,14.60
2015,04,28,07,31,14.50
2015,04,28,07,32,14.50
2015,04,28,07,33,14.40
2015,04,28,07,34,14.40
2015,04,28,07,35,14.30
2015,04,28,07,36,14.30
2015,04,28,07,37,14.20
2015,04,28,07,38,14.20
2015,04,28,07,39,14.20
2015,04,28,07,40,14.20
2015,04,28,07,41,14.10
2015,04,28,07,42,14.10
2015,04,28,07,43,14.10
2015,04,28,07,44,14.10
2015,04,28,07,45,14.10
2015,04,28,07,46,14.10
2015,04,28,07,47,14.00
2015,04,28,07,48,14.00
2015,04,28,07,49,13.90
2015,04,28,07,50,13.90
2015,04,28,07,51,13.90
2015,04,28,07,52,13.90
2015,04,28,07,53,13.90
2015,04,28,07,54,13.90
2015,04,28,07,55,13.90
2015,04,28,07,56,13.90
2015,04,28,07,57,13.80
2015,04,28,07,58,13.80
2015,04,28,07,59,13.80
2015,04,28,08,00,13.80
2015,04,28,08,01,13.80
2015,04,28,08,02,13.80
2015,04,28,08,03,13.70
2015,04,28,08,04,13.70
2015,04,28,08,05,13.70
2015,04,28,08,06,13.70
2015,04,28,08,07,13.70
2015,04,28,08,08,13.70
2015,04,28,08,09,13.70
2015,04,28,08,10,13.60
2015,04,28,08,11,13.50
2015,04,28,08,12,13.40
2015,04,28,08,13,13.30
2015,04,28,08,14,13.30
2015,04,28,08,15,13.30
2015,04,28,08,16,13.20
2015,04,28,08,17,13.20
2015,04,28,08,18,13.20
2015,04,28,08,19,13.20
2015,04,28,08,20,13.10
2015,04,28,08,21,13.10
2015,04,28,08,22,13.00
2015,04,28,08,23,13.00
2015,04,28,08,24,12.90
2015,04,28,08,25,12.90
2015,04,28,08,26,12.80
2015,04,28,08,27,12.80
2015,04,28,08,28,12.70
2015,04,28,08,29,12.60
2015,04,28,08,30,12.50
2015,04,28,08,31,12.40
2015,04,28,08,32,12.40
2015,04,28,08,33,12.30
2015,04,28,08,34,12.30
2015,04,28,08,35,12.30
2015,04,28,08,36,12.30
2015,04,28,08,37,12.30
2015,04,28,08,38,12.30
2015,04,28,08,39,12.30
2015,04,28,08,40,12.20
2015,04,28,08,41,12.20
2015,04,28,08,42,12.20
2015,04,28,08,43,12.20
2015,04,28,08,44,12.20
2015,04,28,08,45,12.20
2015,04,28,08,46,12.10
2015,04,28,08,47,12.10
2015,04,28,08,48,12.10
2015,04,28,08,49,12.10
2015,04,28,08,50,12.10
2015,04,28,08,51,12.10
2015,04,28,08,52,12.10
2015,04,28,08,53,12.00
2015,04,28,08,54,12.00
2015,04,28,08,55,12.00
2015,04,28,08,56,12.10
2015,04,28,08,57,12.10
2015,04,28,08,58,12.00
2015,04,28,08,59,12.00
2015,04,28,09,00,12.00
2015,04,28,09,01,12.00
2015,04,28,09,02,12.00
2015,04,28,09,03,12.00
2015,04,28,09,04,12.00
2015,04,28,09,05,12.00
2015,04,28,09,06,12.00
2015,04,28,09,07,11.90
2015,04,28,09,08,11.90
2015,04,28,09,09,11.90
2015,04,28,09,10,11.90
2015,04,28,09,11,11.90
2015,04,28,09,12,11.90
2015,04,28,09,13,11.90
2015,04,28,09,14,11.90
2015,04,28,09,15,11.90
2015,04,28,09,16,11.80
2015,04,28,09,17,11.80
2015,04,28,09,18,11.80
2015,04,28,09,19,11.80
2015,04,28,09,20,11.80
2015,04,28,09,21,11.80
2015,04,28,09,22,11.80
2015,04,28,09,23,11.80
2015,04,28,09,24,11.80
2015,04,28,09,25,11.80
2015,04,28,09,26,11.80
2015,04,28,09,27,11.80
2015,04,28,09,28,11.80
2015,04,28,09,29,11.80
2015,04,28,09,30,11.70
2015,04,28,09,31,11.70
2015,04,28,09,32,11.70
2015,04,28,09,33,11.70
2015,04,28,09,34,11.70
2015,04,28,09,35,11.70
2015,04,28,09,36,11.70
2015,04,28,09,37,11.70
2015,04,28,09,38,11.70
2015,04,28,09,39,11.70
2015,04,28,09,40,11.70
2015,04,28,09,41,11.70
2015,04,28,09,42,11.70
2015,04,28,09,43,11.80
2015,04,28,09,44,11.80
2015,04,28,09,45,11.80
2015,04,28,09,46,11.80
2015,04,28,09,47,11.80
2015,04,28,09,48,11.80
2015,04,28,09,49,11.80
2015,04,28,09,50,11.90
2015,04,28,09,51,11.90
2015,04,28,09,52,11.90
2015,04,28,09,53,12.00
2015,04,28,09,54,12.00
2015,04,28,09,55,12.00
2015,04,28,09,56,12.00
2015,04,28,09,57,11.90
2015,04,28,09,58,11.90
2015,04,28,09,59,11.90
2015,04,28,10,00,11.80
2015,04,28,10,01,11.80
2015,04,28,10,02,11.80
2015,04,28,10,03,11.80
2015,04,28,10,04,11.80
2015,04,28,10,05,11.70
2015,04,28,10,06,11.70
2015,04,28,10,07,11.70
2015,04,28,10,08,11.70
2015,04,28,10,09,11.70
2015,04,28,10,10,11.70
2015,04,28,10,11,11.70
2015,04,28,10,12,11.70
2015,04,28,10,13,11.70
2015,04,28,10,14,11.70
2015,04,28,10,15,11.70
2015,04,28,10,16,11.70
2015,04,28,10,17,11.70
2015,04,28,10,18,11.60
2015,04,28,10,19,11.60
2015,04,28,10,20,11.60
2015,04,28,10,21,11.60
2015,04,28,10,22,11.60
2015,04,28,10,23,11.50
2015,04,28,10,24,11.40
2015,04,28,10,25,11.40
2015,04,28,10,26,11.40
2015,04,28,10,27,11.40
2015,04,28,10,28,11.40
2015,04,28,10,29,11.40
2015,04,28,10,30,11.40
2015,04,28,10,31,11.40
2015,04,28,10,32,11.40
2015,04,28,10,33,11.40
2015,04,28,10,34,11.40
2015,04,28,10,35,11.40
2015,04,28,10,36,11.40
2015,04,28,10,37,11.40
2015,04,28,10,38,11.40
2015,04,28,10,39,11.40
2015,04,28,10,40,11.40
2015,04,28,10,41,11.40
2015,04,28,10,42,11.40
2015,04,28,10,43,11.30
2015,04,28,10,44,11.30
2015,04,28,10,45,11.30
2015,04,28,10,46,11.30
2015,04,28,10,47,11.30
2015,04,28,10,48,11.30
2015,04,28,10,49,11.20
2015,04,28,10,50,11.20
2015,04,28,10,51,11.20
2015,04,28,10,52,11.20
2015,04,28,10,53,11.20
2015,04,28,10,54,11.20
2015,04,28,10,55,11.10
2015,04,28,10,56,11.10
2015,04,28,10,57,11.10
2015,04,28,10,58,11.10
2015,04,28,10,59,11.10
2015,04,28,11,00,11.10
2015,04,28,11,01,11.10
2015,04,28,11,02,11.10
2015,04,28,11,03,11.10
2015,04,28,11,04,11.10
2015,04,28,11,05,11.10
2015,04,28,11,06,11.00
2015,04,28,11,07,10.90
2015,04,28,11,08,10.90
2015,04,28,11,09,10.90
2015,04,28,11,10,10.90
2015,04,28,11,11,10.80
2015,04,28,11,12,10.80
2015,04,28,11,13,10.80
2015,04,28,11,14,10.70
2015,04,28,11,15,10.70
2015,04,28,11,16,10.70
2015,04,28,11,17,10.70
2015,04,28,11,18,10.70
2015,04,28,11,19,10.70
2015,04,28,11,20,10.70
2015,04,28,11,21,10.60
2015,04,28,11,22,10.60
2015,04,28,11,23,10.60
2015,04,28,11,24,10.60
2015,04,28,11,25,10.60
2015,04,28,11,26,10.60
2015,04,28,11,27,10.60
2015,04,28,11,28,10.60
2015,04,28,11,29,10.60
2015,04,28,11,30,10.60
2015,04,28,11,31,10.60
2015,04,28,11,32,10.50
2015,04,28,11,33,10.40
2015,04,28,11,34,10.40
2015,04,28,11,35,10.40
2015,04,28,11,36,10.40
2015,04,28,11,37,10.40
2015,04,28,11,38,10.40
2015,04,28,11,39,10.40
2015,04,28,11,40,10.40
2015,04,28,11,41,10.40
2015,04,28,11,42,10.40
2015,04,28,11,43,10.40
2015,04,28,11,44,10.40
2015,04,28,11,45,10.40
2015,04,28,11,46,10.40
2015,04,28,11,47,10.40
2015,04,28,11,48,10.30
2015,04,28,11,49,10.30
2015,04,28,11,50,10.30
2015,04,28,11,51,10.30
2015,04,28,11,52,10.30
2015,04,28,11,53,10.30
2015,04,28,11,54,10.30
2015,04,28,11,55,10.30
2015,04,28,11,56,10.30
2015,04,28,11,57,10.30
2015,04,28,11,58,10.30
2015,04,28,11,59,10.30
2015,04,28,12,00,10.20
2015,04,28,12,01,10.20
2015,04,28,12,02,10.10
2015,04,28,12,03,10.10
2015,04,28,12,04,10.10
2015,04,28,12,05,10.10
2015,04,28,12,06,10.00
2015,04,28,12,07,9.90
2015,04,28,12,08,9.90
2015,04,28,12,09,9.90
2015,04,28,12,10,9.90
2015,04,28,12,11,9.90
2015,04,28,12,12,9.90
2015,04,28,12,13,9.90
2015,04,28,12,14,9.90
2015,04,28,12,15,9.90
2015,04,28,12,16,9.90
2015,04,28,12,17,9.90
2015,04,28,12,18,9.90
2015,04,28,12,19,9.90
2015,04,28,12,20,9.90
2015,04,28,12,21,9.90
2015,04,28,12,22,9.90
2015,04,28,12,23,9.90
2015,04,28,12,24,10.00
2015,04,28,12,25,10.10
2015,04,28,12,26,10.00
2015,04,28,12,27,9.90
2015,04,28,12,28,10.00
2015,04,28,12,29,10.10
2015,04,28,12,30,10.10
2015,04,28,12,31,10.10
2015,04,28,12,32,10.10
2015,04,28,12,33,10.10
2015,04,28,12,34,10.10
2015,04,28,12,35,10.10
2015,04,28,12,36,10.10
2015,04,28,12,37,10.10
2015,04,28,12,38,10.20
2015,04,28,12,39,10.20
2015,04,28,12,40,10.20
2015,04,28,12,41,10.30
2015,04,28,12,42,10.30
2015,04,28,12,43,10.30
2015,04,28,12,44,10.30
2015,04,28,12,45,10.40
2015,04,28,12,46,10.40
2015,04,28,12,47,10.40
2015,04,28,12,48,10.40
2015,04,28,12,49,10.40
2015,04,28,12,50,10.50
2015,04,28,12,51,10.60
2015,04,28,12,52,10.60
2015,04,28,12,53,10.60
2015,04,28,12,54,10.60
2015,04,28,12,55,10.60
2015,04,28,12,56,10.70
2015,04,28,12,57,10.70
2015,04,28,12,58,10.70
2015,04,28,12,59,10.80
2015,04,28,13,00,10.80
2015,04,28,13,01,10.90
2015,04,28,13,02,10.90
2015,04,28,13,03,11.00
2015,04,28,13,04,11.10
2015,04,28,13,05,11.10
2015,04,28,13,06,11.10
2015,04,28,13,07,11.10
2015,04,28,13,08,11.20
2015,04,28,13,09,11.20
2015,04,28,13,10,11.20
2015,04,28,13,11,11.30
2015,04,28,13,12,11.30
2015,04,28,13,13,11.40
2015,04,28,13,14,11.40
2015,04,28,13,15,11.40
2015,04,28,13,16,11.40
2015,04,28,13,17,11.40
2015,04,28,13,18,11.40
2015,04,28,13,19,11.40
2015,04,28,13,20,11.50
2015,04,28,13,21,11.60
2015,04,28,13,22,11.60
2015,04,28,13,23,11.60
2015,04,28,13,24,11.60
2015,04,28,13,25,11.60
2015,04,28,13,26,11.60
2015,04,28,13,27,11.60
2015,04,28,13,28,11.60
2015,04,28,13,29,11.60
2015,04,28,13,30,11.70
2015,04,28,13,31,11.70
2015,04,28,13,32,11.80
2015,04,28,13,33,11.80
2015,04,28,13,34,11.80
2015,04,28,13,35,11.90
2015,04,28,13,36,12.00
2015,04,28,13,37,12.00
2015,04,28,13,38,12.10
2015,04,28,13,39,12.20
2015,04,28,13,40,12.30
2015,04,28,13,41,12.40
2015,04,28,13,42,12.50
2015,04,28,13,43,12.60
2015,04,28,13,44,12.70
2015,04,28,13,45,12.70
2015,04,28,13,46,12.80
2015,04,28,13,47,12.90
2015,04,28,13,48,13.00
2015,04,28,13,49,13.00
2015,04,28,13,50,13.10
2015,04,28,13,51,13.20
2015,04,28,13,52,13.20
2015,04,28,13,53,13.30
2015,04,28,13,54,13.30
2015,04,28,13,55,13.40
2015,04,28,13,56,13.40
2015,04,28,13,57,13.50
2015,04,28,13,58,13.60
2015,04,28,13,59,13.70
2015,04,28,14,00,13.70
2015,04,28,14,01,13.70
2015,04,28,14,02,13.70
2015,04,28,14,03,13.70
2015,04,28,14,04,13.70
2015,04,28,14,05,13.50
2015,04,28,14,06,13.50
2015,04,28,14,07,13.50
2015,04,28,14,08,13.50
2015,04,28,14,09,13.50
2015,04,28,14,10,13.40
2015,04,28,14,11,13.40
2015,04,28,14,12,13.40
2015,04,28,14,13,13.40
2015,04,28,14,14,13.30
2015,04,28,14,15,13.30
2015,04,28,14,16,13.30
2015,04,28,14,17,13.30
2015,04,28,14,18,13.30
2015,04,28,14,19,13.40
2015,04,28,14,20,13.40
2015,04,28,14,21,13.50
2015,04,28,14,22,13.50
2015,04,28,14,23,13.60
2015,04,28,14,24,13.60
2015,04,28,14,25,13.70
2015,04,28,14,26,13.70
2015,04,28,14,27,13.80
2015,04,28,14,28,13.90
2015,04,28,14,29,14.00
2015,04,28,14,30,14.00
2015,04,28,14,31,14.10
2015,04,28,14,32,14.10
2015,04,28,14,33,14.10
2015,04,28,14,34,14.10
2015,04,28,14,35,14.20
2015,04,28,14,36,14.20
2015,04,28,14,37,14.20
2015,04,28,14,38,14.20
2015,04,28,14,39,14.20
2015,04,28,14,40,14.30
2015,04,28,14,41,14.30
2015,04,28,14,42,14.30
2015,04,28,14,43,14.30
2015,04,28,14,44,14.30
2015,04,28,14,45,14.30
2015,04,28,14,46,14.30
2015,04,28,14,47,14.30
2015,04,28,14,48,14.30
2015,04,28,14,49,14.30
2015,04,28,14,50,14.20
2015,04,28,14,51,14.30
2015,04,28,14,52,14.30
2015,04,28,14,53,14.30
2015,04,28,14,54,14.40
2015,04,28,14,55,14.40
2015,04,28,14,56,14.40
2015,04,28,14,57,14.50
2015,04,28,14,58,14.60
2015,04,28,14,59,14.70
2015,04,28,15,00,14.80
2015,04,28,15,01,14.80
2015,04,28,15,02,14.90
2015,04,28,15,03,15.00
2015,04,28,15,04,15.10
2015,04,28,15,05,15.20
2015,04,28,15,06,15.30
2015,04,28,15,07,15.30
2015,04,28,15,08,15.40
2015,04,28,15,09,15.40
2015,04,28,15,10,15.50
2015,04,28,15,11,15.50
2015,04,28,15,12,15.60
2015,04,28,15,13,15.60
2015,04,28,15,14,15.70
2015,04,28,15,15,15.70
2015,04,28,15,16,15.60
2015,04,28,15,17,15.60
2015,04,28,15,18,15.50
2015,04,28,15,19,15.50
2015,04,28,15,20,15.50
2015,04,28,15,21,15.50
2015,04,28,15,22,15.60
2015,04,28,15,23,15.70
2015,04,28,15,24,15.70
2015,04,28,15,25,15.80
2015,04,28,15,26,15.80
2015,04,28,15,27,15.80
2015,04,28,15,28,15.80
2015,04,28,15,29,15.70
2015,04,28,15,30,15.70
2015,04,28,15,31,15.60
2015,04,28,15,32,15.60
2015,04,28,15,33,15.50
2015,04,28,15,34,15.50
2015,04,28,15,35,15.60
2015,04,28,15,36,15.60
2015,04,28,15,37,15.60
2015,04,28,15,38,15.60
2015,04,28,15,39,15.50
2015,04,28,15,40,15.50
2015,04,28,15,41,15.40
2015,04,28,15,42,15.40
2015,04,28,15,43,15.50
2015,04,28,15,44,15.50
2015,04,28,15,45,15.60
2015,04,28,15,46,15.50
2015,04,28,15,47,15.50
2015,04,28,15,48,15.60
2015,04,28,15,49,15.50
2015,04,28,15,50,15.50
2015,04,28,15,51,15.50
2015,04,28,15,52,15.50
2015,04,28,15,53,15.60
2015,04,28,15,54,15.60
2015,04,28,15,55,15.70
2015,04,28,15,56,15.80
2015,04,28,15,57,15.80
2015,04,28,15,58,15.90
2015,04,28,15,59,15.90
2015,04,28,16,00,15.90
2015,04,28,16,01,15.90
2015,04,28,16,02,15.90
2015,04,28,16,03,15.90
2015,04,28,16,04,15.80
2015,04,28,16,05,15.70
2015,04,28,16,06,15.70
2015,04,28,16,07,15.70
2015,04,28,16,08,15.80
2015,04,28,16,09,15.90
2015,04,28,16,10,16.00
2015,04,28,16,11,16.10
2015,04,28,16,12,16.10
2015,04,28,16,13,16.10
2015,04,28,16,14,16.10
2015,04,28,16,15,16.00
2015,04,28,16,16,15.90
2015,04,28,16,17,15.80
2015,04,28,16,18,15.80
2015,04,28,16,19,15.80
2015,04,28,16,20,15.80
2015,04,28,16,21,15.80
2015,04,28,16,22,15.80
2015,04,28,16,23,15.70
2015,04,28,16,24,15.70
2015,04,28,16,25,15.60
2015,04,28,16,26,15.60
2015,04,28,16,27,15.70
2015,04,28,16,28,15.70
2015,04,28,16,29,15.70
2015,04,28,16,30,15.60
2015,04,28,16,31,15.50
2015,04,28,16,32,15.50
2015,04,28,16,33,15.50
2015,04,28,16,34,15.50
2015,04,28,16,35,15.60
2015,04,28,16,36,15.60
2015,04,28,16,37,15.60
2015,04,28,16,38,15.60
2015,04,28,16,39,15.60
2015,04,28,16,40,15.50
2015,04,28,16,41,15.50
2015,04,28,16,42,15.50
2015,04,28,16,43,15.50
2015,04,28,16,44,15.50
2015,04,28,16,45,15.50
2015,04,28,16,46,15.60
2015,04,28,16,47,15.50
2015,04,28,16,48,15.50
2015,04,28,16,49,15.50
2015,04,28,16,50,15.60
2015,04,28,16,51,15.60
2015,04,28,16,52,15.70
2015,04,28,16,53,15.80
2015,04,28,16,54,15.80
2015,04,28,16,55,15.80
2015,04,28,16,56,15.80
2015,04,28,16,57,15.80
2015,04,28,16,58,15.80
2015,04,28,16,59,15.80
2015,04,28,17,00,15.70
2015,04,28,17,01,15.70
2015,04,28,17,02,15.70
2015,04,28,17,03,15.70
2015,04,28,17,04,15.70
2015,04,28,17,05,15.70
2015,04,28,17,06,15.70
2015,04,28,17,07,15.70
2015,04,28,17,08,15.70
2015,04,28,17,09,15.60
2015,04,28,17,10,15.60
2015,04,28,17,11,15.60
2015,04,28,17,12,15.60
2015,04,28,17,13,15.60
2015,04,28,17,14,15.50
2015,04,28,17,15,15.50
2015,04,28,17,16,15.40
2015,04,28,17,17,15.30
2015,04,28,17,18,15.30
2015,04,28,17,19,15.30
2015,04,28,17,20,15.30